Temp
22 22 22 23 25 27 28 31 34 32 33 33 33 32 32 32 32 30 29 28 27 28 27 26 25 24 24 23 22 22 21 21 20 19 19 18 17 17 16 16 16 16 15 15 16 16 16 16 16
22 22 21 25 26 27 30 33 33 34 33 32 32 32 33 32 32 30 28 28 27 28 27 26 26 24 24 23 22 22 21 20 20 19 18 18 17 17 16 16 15 15 15 15 15 15 15 15 15
21 21 24 26 27 27 30 31 29 32 32 32 33 32 32 32 30 29 28 27 27 27 27 26 25 25 24 23 22 22 21 20 20 19 19 18 17 17 16 16 15 15 15 15 15 15 14 13 13
22 22 24 25 27 31 32 31 32 30 33 32 32 32 31 30 30 29 27 28 27 25 26 26 25 25 24 23 22 21 21 20 20 19 19 18 18 17 16 16 15 15 15 14 14 14 14 14 14
21 25 26 27 29 30 33 33 33 32 31 33 32 32 30 29 29 28 27 27 27 26 25 25 25 24 23 23 22 21 21 20 20 19 19 18 18 17 16 15 15 15 15 14 14 14 14 14 14
23 25 25 27 29 31 33 33 32 32 32 33 33 32 31 30 28 28 28 27 27 27 25 25 24 24 23 23 22 21 21 20 20 19 19 18 18 18 17 15 15 14 15 14 14 14 14 14 14
24 26 26 28 29 31 33 33 32 32 32 32 31 31 31 30 28 28 27 27 27 27 26 24 24 23 23 22 22 22 21 20 20 19 19 18 18 17 17 16 15 15 15 14 14 14 14 14 14
23 25 25 28 29 30 32 32 31 31 32 31 31 31 30 30 30 29 29 29 29 27 26 25 24 23 23 22 22 22 21 20 20 19 19 19 18 17 17 16 15 14 14 14 14 14 14 14 14
24 24 25 26 28 29 31 32 32 31 31 31 30 30 30 30 30 29 29 28 29 29 28 25 24 24 23 22 22 22 21 20 19 19 19 19 18 18 17 15 14 14 14 14 14 14 14 14 14
25 24 25 28 29 30 30 31 31 31 30 30 30 30 30 30 29 29 29 29 29 29 29 27 25 23 23 21 22 21 21 21 20 19 19 18 18 17 16 15 15 15 14 14 14 14 14 14 14
25 25 27 28 28 29 30 30 30 30 30 30 30 30 30 29 29 28 28 28 29 29 28 28 26 24 23 22 19 19 20 20 20 19 19 18 16 15 15 15 15 16 15 15 14 14 14 13 13
25 26 27 27 28 28 29 29 30 30 30 30 30 29 30 29 29 28 28 28 28 28 28 28 26 25 24 22 20 20 19 19 19 19 18 16 16 17 16 15 15 15 15 14 14 13 13 13 13
26 27 27 28 28 28 29 29 30 30 29 29 30 29 29 29 29 28 28 28 28 28 27 27 26 26 25 22 21 20 19 18 18 17 17 16 16 16 15 15 15 15 14 14 14 14 14 13 14
26 27 28 28 29 29 29 30 29 29 29 29 29 29 29 29 29 28 28 28 28 28 27 27 26 25 25 24 21 20 19 18 18 17 17 16 16 16 15 15 14 14 14 14 13 13 13 13 13
26 26 28 28 28 29 29 28 29 29 29 29 29 29 29 29 29 28 28 28 28 27 27 26 26 25 25 24 22 20 19 19 18 18 17 16 16 16 15 14 14 14 14 13 13 13 13 13 13
25 25 25 27 28 28 28 26 28 28 29 29 28 28 29 29 29 29 28 28 27 27 26 26 25 24 24 23 21 20 18 18 18 17 17 16 15 16 15 14 13 14 13 13 13 13 13 12 13
24 24 24 26 28 28 28 27 29 29 29 29 28 28 28 28 28 28 28 28 27 27 26 26 25 24 23 22 20 19 18 18 18 17 16 16 15 15 15 14 13 14 14 13 13 13 13 12 13
22 23 24 25 27 28 28 28 29 29 29 29 29 29 28 28 28 28 28 27 27 27 26 25 24 23 22 21 19 17 17 17 16 17 16 16 15 14 14 14 14 14 13 13 13 12 12 12 12
24 24 24 26 28 27 27 27 28 29 29 30 29 28 28 28 28 28 28 27 27 26 26 24 23 22 21 19 18 17 17 16 16 16 16 16 15 14 14 14 13 13 13 13 13 12 12 12 12
23 23 24 26 27 27 27 27 29 29 29 29 29 28 28 28 28 28 28 27 26 26 25 23 21 21 20 18 17 17 16 17 16 16 16 16 15 14 14 14 13 13 13 13 13 12 12 12 13
23 23 24 24 26 27 27 26 27 29 29 29 29 28 28 27 27 27 27 27 25 25 23 20 19 19 18 17 17 17 17 17 17 17 16 16 15 15 14 13 13 13 13 13 12 12 12 12 12
22 24 24 24 24 24 26 24 26 28 28 29 29 28 28 27 27 27 27 25 24 22 20 17 17 17 17 17 17 17 17 17 17 17 17 16 14 14 13 13 13 13 13 12 13 12 12 12 12
22 24 25 25 24 24 25 24 25 27 27 28 29 29 28 28 28 28 28 24 21 20 18 16 16 16 16 16 17 17 17 17 17 17 16 16 15 15 14 13 13 13 13 12 12 12 12 12 12
24 23 24 25 25 23 24 24 24 26 27 28 29 29 29 28 28 28 25 21 19 18 17 16 15 15 16 16 16 16 17 17 16 16 15 15 14 14 14 13 13 13 13 13 12 12 12 12 12
22 23 21 21 22 22 25 25 25 27 28 29 29 29 29 29 29 24 22 20 19 17 16 15 15 15 16 16 16 16 16 16 15 15 15 14 14 13 13 13 12 13 13 13 12 12 12 13 13
21 22 22 19 21 23 25 24 26 28 29 29 29 29 29 28 25 23 21 19 18 17 16 15 15 15 15 15 15 15 15 15 15 15 14 14 13 13 13 13 13 13 12 13 12 13 13 13 13
22 21 24 23 25 24 26 26 27 28 29 29 29 29 28 27 25 23 21 19 18 17 16 16 15 15 15 15 15 15 15 15 15 14 14 14 13 13 13 13 13 12 12 13 13 13 13 13 13
21 24 21 23 21 22 25 27 28 28 28 29 29 28 26 25 24 22 20 19 18 17 17 16 16 15 15 15 15 15 15 14 14 13 13 13 13 13 13 13 13 13 13 13 13 13 13 13 13
21 22 23 24 24 23 23 26 30 29 29 28 29 28 26 24 23 22 21 19 18 18 17 17 16 16 16 15 15 15 15 14 13 13 13 13 13 13 13 13 13 13 13 13 13 13 13 13 12
22 22 22 22 22 24 25 26 30 29 29 29 29 28 25 24 23 22 21 20 19 18 17 17 17 16 16 16 16 16 15 14 13 13 13 13 13 13 13 13 13 13 13 13 12 13 13 12 12
Height
1510 1511 1513 1516 1515 1501 1495 1477 1455 1463 1460 1462 1468 1470 1471 1471 1472 1487 1486 1489 1489 1490 1493 1495 1497 1499 1501 1504 1505 1506 1509 1510 1512 1512 1513 1513 1513 1513 1514 1514 1514 1514 1515 1515 1515 1516 1518 1518 1518
1510 1512 1514 1511 1509 1503 1484 1462 1462 1458 1460 1468 1469 1467 1469 1471 1475 1482 1487 1490 1488 1489 1492 1493 1495 1497 1499 1502 1503 1505 1507 1508 1510 1511 1512 1512 1512 1511 1512 1513 1513 1513 1514 1514 1514 1514 1515 1516 1517
1509 1514 1514 1504 1499 1498 1483 1470 1474 1468 1467 1468 1467 1468 1469 1474 1478 1484 1488 1491 1489 1489 1491 1492 1493 1495 1497 1499 1501 1503 1505 1507 1508 1509 1510 1511 1511 1511 1511 1511 1511 1512 1512 1513 1512 1513 1514 1514 1515
1512 1514 1512 1503 1495 1473 1467 1469 1467 1471 1464 1466 1470 1470 1472 1474 1478 1482 1487 1490 1489 1489 1488 1490 1491 1492 1494 1497 1499 1501 1503 1504 1506 1507 1509 1509 1509 1509 1509 1509 1510 1510 1510 1510 1511 1511 1512 1513 1513
1512 1508 1502 1495 1485 1473 1463 1461 1458 1464 1468 1462 1465 1469 1475 1478 1479 1483 1485 1488 1489 1487 1487 1487 1489 1491 1493 1495 1497 1499 1501 1503 1504 1505 1506 1507 1507 1507 1507 1507 1508 1508 1508 1508 1508 1509 1509 1510 1510
1510 1504 1504 1496 1482 1469 1461 1457 1460 1465 1464 1464 1463 1467 1473 1476 1480 1483 1485 1487 1488 1489 1485 1488 1491 1492 1492 1493 1495 1497 1499 1501 1502 1503 1504 1506 1505 1505 1505 1505 1505 1505 1505 1505 1505 1505 1506 1507 1507
1505 1498 1495 1485 1477 1467 1457 1456 1463 1466 1466 1464 1466 1468 1473 1476 1478 1480 1483 1484 1483 1484 1481 1482 1486 1491 1493 1491 1492 1494 1495 1498 1500 1500 1501 1503 1503 1503 1502 1503 1503 1502 1501 1501 1501 1501 1501 1502 1502
1504 1499 1494 1482 1478 1471 1457 1459 1466 1469 1465 1467 1471 1472 1474 1476 1477 1478 1478 1480 1480 1476 1477 1475 1479 1482 1487 1488 1489 1490 1493 1494 1496 1497 1498 1499 1500 1500 1500 1500 1500 1499 1498 1497 1497 1497 1497 1497 1498
1502 1502 1495 1484 1478 1470 1462 1460 1461 1464 1466 1469 1470 1472 1473 1473 1474 1473 1475 1477 1477 1478 1475 1466 1471 1475 1478 1482 1484 1485 1488 1489 1491 1493 1494 1495 1495 1496 1496 1495 1495 1495 1495 1495 1493 1493 1493 1494 1494
1496 1492 1483 1476 1471 1466 1463 1462 1461 1464 1466 1468 1471 1471 1469 1469 1470 1471 1472 1472 1473 1473 1473 1467 1464 1465 1470 1476 1479 1481 1483 1483 1485 1488 1489 1490 1491 1492 1492 1492 1493 1494 1493 1492 1491 1490 1491 1490 1491
1486 1479 1478 1472 1470 1467 1464 1461 1462 1461 1460 1462 1464 1465 1464 1465 1467 1470 1470 1468 1467 1467 1467 1466 1462 1462 1464 1469 1473 1476 1477 1477 1479 1482 1484 1485 1486 1488 1489 1490 1490 1490 1490 1489 1488 1488 1489 1488 1489
1479 1472 1474 1471 1469 1465 1461 1460 1457 1457 1457 1459 1460 1462 1460 1460 1462 1466 1465 1463 1462 1461 1461 1462 1456 1458 1460 1463 1468 1471 1472 1472 1474 1476 1479 1480 1482 1484 1485 1487 1488 1486 1486 1486 1487 1486 1486 1486 1488
1465 1465 1466 1464 1462 1459 1458 1455 1455 1453 1456 1455 1454 1455 1454 1455 1456 1459 1459 1457 1456 1456 1457 1458 1452 1454 1455 1458 1463 1466 1467 1468 1470 1472 1474 1476 1478 1479 1480 1483 1484 1483 1484 1483 1483 1483 1485 1484 1485
1461 1461 1457 1456 1453 1452 1451 1448 1450 1448 1452 1449 1449 1448 1449 1450 1451 1451 1452 1450 1449 1450 1451 1453 1449 1450 1451 1452 1457 1463 1465 1467 1469 1471 1471 1473 1474 1475 1477 1479 1479 1478 1479 1480 1480 1479 1479 1480 1481
1459 1455 1449 1444 1449 1444 1451 1441 1438 1443 1445 1442 1443 1442 1442 1442 1443 1442 1443 1443 1443 1444 1445 1446 1445 1445 1447 1448 1451 1458 1462 1465 1466 1467 1470 1470 1471 1472 1472 1475 1475 1473 1473 1474 1475 1475 1475 1476 1477
1453 1453 1446 1436 1442 1434 1449 1443 1432 1439 1438 1435 1437 1437 1435 1433 1434 1432 1434 1436 1438 1438 1438 1439 1440 1439 1442 1443 1447 1454 1458 1461 1462 1464 1467 1468 1467 1468 1469 1470 1470 1470 1468 1469 1469 1470 1471 1471 1472
1447 1444 1439 1429 1433 1434 1436 1434 1419 1428 1429 1425 1427 1429 1430 1427 1426 1427 1429 1432 1433 1432 1430 1432 1434 1433 1436 1438 1442 1449 1454 1456 1460 1462 1464 1464 1465 1465 1465 1466 1466 1466 1465 1465 1465 1466 1467 1467 1468
1439 1442 1425 1431 1426 1424 1424 1423 1412 1418 1419 1417 1416 1417 1419 1421 1420 1418 1422 1425 1426 1424 1424 1425 1427 1430 1431 1434 1438 1445 1451 1452 1456 1460 1461 1463 1462 1463 1463 1463 1462 1461 1460 1460 1461 1461 1463 1463 1465
1429 1424 1425 1417 1416 1419 1418 1417 1406 1410 1410 1406 1406 1409 1412 1414 1413 1413 1414 1417 1419 1417 1419 1420 1423 1426 1426 1429 1434 1441 1447 1449 1454 1457 1459 1460 1460 1461 1461 1460 1459 1457 1456 1455 1457 1457 1459 1460 1461
1428 1426 1419 1412 1411 1412 1410 1407 1400 1399 1399 1399 1399 1400 1404 1406 1408 1408 1407 1409 1410 1410 1412 1415 1417 1421 1424 1428 1433 1439 1445 1448 1451 1454 1455 1456 1456 1457 1457 1455 1454 1453 1452 1451 1452 1453 1454 1455 1457
1416 1416 1419 1417 1415 1407 1408 1404 1395 1391 1391 1391 1392 1395 1397 1399 1400 1400 1402 1403 1403 1404 1406 1409 1414 1417 1422 1427 1433 1439 1443 1447 1449 1452 1452 1452 1453 1453 1453 1451 1450 1449 1448 1447 1448 1449 1450 1452 1452
1410 1407 1412 1414 1419 1421 1409 1414 1388 1387 1385 1384 1386 1386 1386 1389 1391 1392 1395 1395 1398 1401 1404 1408 1412 1416 1421 1426 1432 1437 1440 1444 1447 1449 1450 1450 1450 1450 1449 1448 1447 1446 1445 1445 1446 1447 1448 1449 1449
1396 1409 1405 1406 1410 1413 1408 1412 1371 1383 1383 1381 1378 1377 1378 1380 1382 1384 1388 1390 1395 1398 1402 1408 1412 1416 1421 1426 1431 1435 1441 1444 1445 1447 1447 1448 1447 1446 1446 1445 1444 1444 1444 1444 1444 1444 1445 1445 1446
1401 1403 1404 1401 1401 1413 1391 1405 1373 1383 1379 1372 1368 1367 1367 1370 1373 1376 1380 1388 1394 1398 1403 1408 1412 1416 1421 1427 1431 1435 1439 1441 1443 1444 1444 1444 1443 1443 1443 1443 1443 1443 1443 1443 1443 1443 1443 1444 1445
1395 1400 1415 1422 1412 1397 1384 1393 1372 1369 1367 1363 1361 1360 1362 1365 1365 1372 1380 1389 1393 1398 1404 1409 1412 1417 1423 1427 1431 1435 1436 1438 1440 1441 1442 1442 1441 1440 1440 1441 1443 1443 1443 1443 1444 1444 1444 1445 1445
1389 1388 1393 1412 1403 1392 1380 1386 1367 1355 1353 1353 1355 1355 1358 1364 1370 1378 1384 1388 1394 1400 1406 1410 1414 1419 1424 1427 1431 1434 1436 1438 1439 1440 1439 1440 1440 1439 1440 1441 1442 1442 1442 1443 1443 1444 1444 1444 1444
1378 1389 1372 1385 1375 1382 1362 1354 1345 1346 1345 1347 1350 1354 1359 1365 1372 1379 1385 1391 1396 1402 1407 1411 1416 1420 1424 1427 1431 1433 1435 1436 1437 1438 1438 1439 1439 1440 1441 1441 1442 1442 1442 1442 1443 1443 1443 1444 1444
1371 1367 1387 1373 1397 1391 1369 1353 1343 1339 1340 1341 1347 1350 1359 1367 1374 1381 1387 1393 1398 1404 1409 1413 1418 1421 1424 1428 1431 1433 1435 1436 1437 1438 1437 1439 1439 1441 1442 1442 1442 1442 1442 1442 1443 1443 1443 1444 1443
1369 1365 1363 1367 1368 1379 1383 1359 1321 1328 1331 1339 1343 1350 1358 1368 1376 1382 1389 1395 1400 1405 1410 1414 1418 1422 1425 1428 1430 1431 1433 1435 1436 1437 1438 1438 1440 1442 1443 1443 1443 1443 1442 1442 1442 1442 1442 1441 1444
1358 1359 1359 1365 1374 1364 1364 1354 1322 1326 1330 1336 1339 1347 1358 1367 1376 1384 1390 1396 1401 1406 1411 1415 1419 1422 1425 1427 1428 1431 1432 1433 1435 1436 1438 1439 1440 1442 1444 1445 1444 1443 1442 1441 1442 1442 1441 1441 1443
Wind_Speed
5 8 7 6 6 6 15 19 6 4 7 6 4 3 12 10 8 4 14 10 13 3 10 10 10 12 11 11 10 8 7 5 4 2 3 4 5 6 7 7 8 8 7 6 7 8 6 7 8
9 9 5 10 7 12 12 11 9 8 14 6 4 7 5 3 11 22 14 9 12 2 10 12 12 13 13 13 11 9 8 6 5 3 4 5 6 7 8 9 7 7 8 8 8 9 11 8 7
13 11 9 4 10 14 11 4 17 9 2 3 5 5 4 5 10 10 8 5 11 9 10 14 14 14 15 14 13 11 9 7 6 4 4 5 7 8 8 9 9 9 9 11 12 12 11 10 8
9 6 11 7 18 20 22 12 2 13 19 5 5 5 6 7 6 6 4 4 10 10 10 17 17 15 16 16 15 13 11 9 7 5 5 5 7 9 9 9 10 10 12 12 13 14 14 12 10
8 13 10 14 18 20 19 16 11 3 13 12 4 3 13 9 10 7 3 6 8 14 15 12 18 20 17 18 17 16 13 11 9 7 6 7 8 9 10 10 11 13 14 14 15 16 17 17 15
10 13 12 14 19 21 18 15 5 13 16 17 7 12 2 8 14 7 3 3 7 9 17 18 14 20 22 20 20 18 16 14 12 11 10 11 11 11 12 12 13 17 18 17 18 19 19 19 19
18 11 16 18 19 21 16 1 2 11 14 12 11 5 4 6 3 2 4 10 12 12 18 20 20 19 23 26 24 23 20 18 16 15 14 15 15 15 14 15 16 20 19 18 19 20 22 23 23
23 11 22 19 18 21 22 2 1 15 13 11 7 4 9 3 14 13 7 12 12 16 19 23 23 23 26 29 29 27 24 23 21 20 19 18 19 17 17 13 14 15 15 18 18 18 18 20 21
22 14 16 22 22 20 26 18 14 13 12 19 17 14 18 20 21 18 10 14 17 16 18 26 24 22 22 29 32 30 29 28 26 25 23 21 21 18 14 14 17 20 21 22 22 17 15 15 16
22 16 25 21 20 21 24 25 24 17 18 18 16 26 23 18 17 19 19 19 20 22 21 26 25 25 26 23 29 31 33 33 32 28 25 24 19 13 7 16 18 18 16 16 16 11 11 11 13
28 24 24 25 31 31 28 27 31 25 21 22 29 29 27 20 20 23 24 23 23 22 25 20 28 28 28 27 22 26 28 35 34 31 27 23 15 13 13 12 14 16 16 16 12 10 12 9 4
27 35 34 34 36 34 27 35 31 32 30 31 28 35 29 24 18 22 27 22 23 23 20 23 25 28 30 29 25 30 29 28 28 30 25 21 21 18 15 15 13 14 16 16 12 12 10 8 8
30 29 38 39 38 38 38 32 32 36 42 40 39 38 34 31 24 24 29 24 22 22 21 22 22 27 27 35 30 31 29 22 20 18 20 24 21 15 11 13 14 15 14 12 17 18 20 19 20
35 36 37 41 40 39 32 32 36 38 40 40 38 34 35 36 35 27 33 26 20 21 21 21 16 24 27 34 36 32 31 25 23 25 25 24 19 16 19 19 17 20 20 20 18 19 19 18 16
41 34 32 32 36 32 38 32 31 39 38 35 35 38 35 34 39 32 33 25 17 21 22 21 22 21 30 35 34 33 34 29 29 26 22 23 21 16 18 17 16 21 20 20 22 22 19 16 16
32 31 29 29 29 37 31 31 30 38 39 32 34 35 33 35 30 25 23 22 22 26 21 22 24 24 31 36 34 35 26 30 20 24 23 23 23 19 16 16 17 14 23 22 22 22 20 17 16
29 24 34 34 29 31 29 30 31 36 38 33 31 30 34 35 41 23 21 25 31 28 23 25 25 23 31 35 31 27 26 28 29 19 19 20 19 16 14 16 17 20 23 20 20 20 17 17 15
23 30 34 28 26 27 30 29 29 32 33 33 32 26 27 35 39 27 24 26 28 29 19 21 25 24 29 31 27 23 29 24 19 22 19 17 16 14 14 19 20 21 23 20 18 17 16 17 14
28 32 32 29 28 28 25 27 30 23 27 25 26 24 30 32 28 25 24 26 35 22 23 22 22 25 29 29 22 25 25 24 22 18 17 17 16 15 18 20 21 23 22 19 18 17 17 18 14
33 31 31 28 26 24 23 26 26 22 22 25 26 26 28 30 31 29 24 23 24 21 21 24 24 28 30 27 20 23 22 18 17 17 16 17 18 14 15 18 21 20 19 19 18 17 16 17 17
32 32 27 30 25 26 23 26 25 24 27 30 27 28 29 31 32 36 31 25 21 18 17 20 24 26 27 24 23 20 19 16 15 15 14 17 16 15 14 19 18 16 16 18 15 15 16 17 17
28 28 28 27 23 18 21 20 24 18 21 19 22 29 28 30 35 37 32 22 18 13 12 14 20 24 27 23 24 21 20 16 14 12 13 9 9 8 11 16 17 13 11 11 11 12 15 16 18
34 24 26 27 24 21 25 15 23 16 17 16 15 22 24 25 24 24 19 20 16 15 14 18 23 22 25 23 21 22 17 13 8 9 11 12 15 17 14 13 8 8 8 7 8 10 11 13 15
26 27 27 25 18 17 26 20 25 18 17 18 19 23 21 25 25 20 19 23 20 16 18 21 21 25 25 23 18 17 14 9 9 10 9 10 13 12 10 6 6 6 5 5 6 6 7 9 10
31 21 16 17 16 22 18 20 22 19 19 21 17 18 15 13 19 28 27 24 21 21 22 22 26 24 25 20 19 13 15 13 9 6 6 8 7 6 3 4 8 7 4 3 2 2 3 5 6
30 25 15 25 15 20 23 22 19 19 22 20 10 11 8 12 21 24 22 23 24 23 23 23 24 22 22 18 15 12 9 6 6 4 5 4 1 3 7 5 4 2 3 4 5 4 4 4 4
26 27 28 22 21 16 16 20 29 23 18 13 7 13 11 15 20 20 22 24 25 25 25 25 22 21 19 16 15 12 9 8 7 7 4 1 4 4 3 2 2 2 1 4 4 5 6 2 2
28 22 25 17 23 21 20 19 9 14 18 12 9 12 20 21 21 22 24 26 26 25 25 22 21 20 18 15 14 11 8 7 3 2 2 5 9 8 2 2 1 1 1 3 3 3 3 2 1
24 23 26 18 19 16 14 13 7 9 7 11 12 18 25 23 24 26 26 27 26 25 23 23 20 18 17 15 12 13 7 5 6 4 4 5 13 6 4 3 3 1 2 1 3 4 5 5 3
29 25 23 15 24 17 14 15 7 8 8 12 15 25 26 26 27 27 27 27 26 24 23 21 19 17 17 13 11 8 9 7 6 7 7 2 10 8 7 3 2 2 6 1 2 4 6 8 1
Wind_Direction
212 160 134 231 253 230 257 250 250 115 239 114 33 331 354 336 10 51 135 132 169 170 171 172 178 185 187 187 176 175 187 194 217 260 310 321 321 314 305 298 287 284 281 286 299 302 292 287 285
176 153 255 270 243 240 245 273 283 333 66 59 284 243 302 14 54 85 104 121 170 257 184 189 188 190 190 191 184 184 194 197 218 259 308 320 322 317 309 299 282 275 267 276 291 300 306 295 274
168 209 256 220 234 252 276 47 295 222 187 292 309 98 252 88 72 80 77 138 176 225 200 198 199 197 195 194 193 193 198 202 216 238 286 309 315 310 304 291 282 271 268 276 286 288 291 277 277
160 223 251 247 263 240 253 179 45 7 245 51 294 331 58 95 108 116 96 162 185 198 229 199 204 205 201 201 202 200 204 207 219 234 270 300 313 308 297 289 283 276 278 276 279 283 286 279 259
238 249 245 253 252 262 280 265 319 262 292 257 172 17 91 110 116 107 103 168 207 203 227 231 205 212 210 209 211 208 211 217 227 241 268 290 304 303 293 284 281 288 287 278 273 267 269 267 255
226 228 257 250 255 258 266 282 351 303 307 304 272 208 195 149 113 80 78 230 232 244 211 245 234 223 219 216 218 216 217 225 235 249 265 280 295 304 295 286 288 279 285 278 273 269 269 266 264
240 244 243 256 265 273 274 28 342 305 291 308 18 22 33 88 120 320 278 260 237 228 223 213 232 240 235 226 221 224 221 230 237 249 261 272 282 291 294 290 283 288 286 281 277 274 272 267 265
237 261 265 265 271 272 284 1 253 265 273 336 27 266 286 286 310 313 314 294 277 234 220 217 222 238 244 233 225 224 226 229 235 244 255 266 273 284 293 294 304 299 302 303 290 284 278 271 264
233 248 251 253 259 274 280 287 288 302 306 284 294 299 302 303 292 283 305 288 283 292 248 215 215 238 253 237 229 225 226 230 232 239 248 260 268 283 293 302 304 298 305 307 296 290 284 280 272
225 243 240 248 261 273 290 286 285 272 272 256 260 288 274 286 301 309 303 289 286 284 286 229 216 221 248 245 238 227 227 231 233 238 245 254 262 275 268 260 278 297 309 313 320 296 306 293 272
229 238 249 255 261 266 269 277 283 287 277 281 298 287 285 295 298 292 285 280 281 291 295 272 218 220 228 236 233 239 228 231 233 237 242 250 252 262 271 274 288 293 296 303 314 308 307 315 315
239 239 245 253 259 268 271 275 276 283 289 289 265 276 279 282 280 289 280 280 280 291 290 284 224 222 225 223 218 241 236 237 232 233 236 234 238 246 243 240 238 275 286 287 274 285 290 257 251
237 242 246 250 254 255 263 264 272 278 283 285 289 284 281 285 281 274 272 274 282 290 286 275 237 228 236 220 214 222 232 233 231 227 230 233 241 241 241 249 246 237 248 272 278 266 247 259 260
241 245 250 258 260 260 266 271 272 269 275 279 280 273 273 272 280 271 272 273 274 289 281 267 251 233 244 239 219 217 218 221 220 214 224 239 244 232 228 243 255 264 265 253 253 255 262 255 260
252 256 262 255 259 266 272 270 265 280 282 280 281 277 274 273 269 263 264 269 282 292 276 256 248 242 244 243 225 210 221 212 215 212 226 238 247 241 235 237 240 265 274 260 251 252 255 263 252
254 257 260 253 254 255 258 264 266 269 270 266 272 285 281 275 256 256 253 286 298 286 263 256 244 240 239 238 227 211 214 214 217 225 221 233 240 254 241 248 261 265 264 273 256 255 258 257 246
245 248 248 249 248 261 255 260 262 255 257 258 252 255 268 273 274 261 269 273 279 278 260 249 245 230 233 232 230 217 214 221 213 221 221 235 249 264 267 265 259 256 266 269 255 256 253 248 245
222 236 242 257 251 251 248 251 262 261 264 265 261 255 259 273 273 253 249 276 280 278 249 243 234 216 228 228 223 207 213 221 213 217 223 231 248 258 256 263 281 272 273 270 250 252 253 242 238
236 239 248 254 253 247 256 260 265 276 275 259 249 255 269 265 281 259 263 274 283 238 238 225 224 210 214 211 200 198 205 213 205 219 223 227 237 243 250 272 268 275 274 270 254 253 250 232 230
244 254 253 261 261 258 265 261 264 256 255 255 266 247 253 261 275 283 258 265 250 244 246 233 219 206 208 202 203 198 200 219 208 218 228 235 243 258 268 266 276 274 276 265 259 253 247 238 236
234 236 247 258 268 270 273 271 267 266 271 273 267 275 274 276 274 274 275 270 233 240 243 227 212 206 195 192 186 191 194 207 203 211 207 239 253 258 264 274 283 278 272 268 262 253 244 243 244
240 233 243 248 253 260 258 270 253 258 264 259 257 257 253 249 251 250 252 213 210 219 214 193 181 183 182 183 177 187 188 194 208 227 234 214 227 246 280 287 286 283 277 266 257 250 245 248 248
244 243 245 244 250 257 253 260 266 275 272 276 269 260 256 258 258 261 241 187 179 186 176 177 182 178 169 170 183 183 182 198 184 202 244 255 259 265 275 275 282 279 282 270 263 255 247 245 246
238 243 248 255 254 246 242 244 267 260 271 277 269 266 260 242 247 243 177 150 155 157 163 174 172 152 174 166 179 181 189 176 185 210 230 253 278 283 272 245 312 295 280 282 277 258 248 238 233
240 229 234 236 235 242 243 238 256 269 268 269 276 266 262 251 235 134 140 145 148 152 162 166 151 169 169 167 179 167 196 204 213 199 252 269 285 298 225 175 222 265 267 280 280 212 251 232 245
224 233 220 219 216 245 248 251 256 253 254 248 282 237 229 138 114 128 140 146 148 156 159 155 161 163 164 172 167 171 174 160 175 222 243 257 231 213 157 213 235 234 243 225 253 254 254 258 258
230 226 236 244 234 251 253 235 239 243 246 239 199 200 144 132 134 140 144 147 152 156 156 160 162 162 165 165 162 167 171 167 209 220 200 238 156 110 155 182 172 211 266 242 232 241 236 213 247
243 219 226 223 234 239 235 250 274 200 225 212 206 164 137 133 143 148 149 151 152 155 158 159 163 165 165 167 168 167 167 187 190 160 172 145 127 150 257 121 80 183 250 249 217 205 187 172 148
230 235 217 237 227 238 247 269 199 172 143 148 170 162 139 146 151 148 152 152 153 155 158 162 164 165 168 166 170 176 193 191 187 181 181 177 151 154 138 48 13 22 349 315 173 183 188 271 287
232 224 230 218 219 236 246 248 89 101 138 164 165 147 140 150 150 154 152 155 155 158 160 163 167 168 167 169 178 184 183 198 188 161 172 128 138 139 129 181 290 8 316 271 218 230 217 237 255